Location: Hermaringen
(48.5952°N, 10.2585°E)
Time: 06:52:37
(UTC+00:00)

Altair - Pass Details

Date: 17 February 2026
Orbit: 1502 x 1682 km, 47.2° (Epoch: 9 March)

Event Time Altitude Azimuth Distance (km) Brightness Sun altitude
Rises 11:40:09 0° 288° (WNW) 4,766 9.9 29.5°
Reaches altitude 10° 11:44:11 10° 274° (W) 3,810 9.7 29.5°
Maximum altitude 11:50:45 21° 231° (SW) 3,075 10.0 29.4°
Drops below altitude 10° 11:57:28 10° 187° (S) 3,890 11.3 29.3°
Sets 12:01:41 0° 173° (S) 4,895 11.2 29.2°
